Flag for Germany Weather past 2 weeks in Andernach, Rhineland-Palatinate, Germany

Now
37 °F

Broken clouds.


Feels Like: 31 °F
Forecast: 30 / 48 °F
Wind: 8 mph from North

Location: Buechel

Current Time: Mar 5, 2015 at 11:48:21 AM

Latest Report: Mar 5, 2015 at 11:20 AM


Visibility: N/A

Pressure: 30.60 "Hg

Humidity: 70%

Dew point: 28 °F

Location of AndernachLocation

Historic Weather in Andernach — Graph

°F

Andernach temperature yesterday

Maximum temperature yesterday: 41 °F (at 4:20 PM)
Minimum temperature yesterday: 30 °F (at 7:20 AM)
Average temperature yesterday: 35 °F

Past Weeks' High & Low Weather Summary

 TemperatureHumidityPressure
High46 °F (Mar 1, 1:20 PM)100% (Feb 19, 1:20 AM)30.69 "Hg (Feb 19, 1:20 AM)
Low27 °F (Feb 19, 1:20 AM)46% (Mar 2, 2:20 PM)29.39 "Hg (Feb 21, 4:20 AM)
Average35 °F87%29.92 "Hg
* Reported Feb 18 10:20 AM — Mar 5 10:20 AM, Andernach, Weather by CustomWeather, © 2015

Note: Actual official high and low records may vary slightly from our data, if they occured in-between our weather recording intervals... More about our weather records

Advertising

Andernach weather history for previous 24 hours

 ConditionsComfort  
Time TempWeatherWind HumidityBarometerVisibility
10:20 AM
Thu, Mar 5
36 °FBroken clouds.9 mph75%30.60 "HgN/A
9:20 AM36 °FBroken clouds.5 mph81%30.57 "HgN/A
8:20 AM34 °FScattered clouds.5 mph81%30.57 "HgN/A
7:20 AM34 °FBroken clouds.5 mph81%30.57 "HgN/A
6:20 AM34 °FPassing clouds.5 mph81%30.54 "HgN/A
5:20 AM34 °FPassing clouds.7 mph81%30.54 "HgN/A
4:20 AM34 °FPassing clouds.8 mph81%30.51 "HgN/A
2:20 AM34 °FChilly.13 mph81%30.48 "HgN/A
1:20 AM36 °FChilly.13 mph75%30.45 "HgN/A
12:20 AM34 °FChilly.14 mph87%30.42 "HgN/A
11:20 PM
Wed, Mar 4
34 °FChilly.14 mph87%30.42 "Hg5 mi
10:20 PM36 °FChilly.12 mph75%30.39 "HgN/A
9:20 PM34 °FChilly.10 mph81%30.39 "HgN/A
8:20 PM34 °FChilly.8 mph81%30.36 "HgN/A
7:20 PM36 °FChilly.12 mph75%30.36 "HgN/A
6:20 PM37 °FChilly.6 mph70%30.33 "HgN/A
5:20 PM37 °FBroken clouds.7 mph75%30.30 "HgN/A
4:20 PM41 °FBroken clouds.8 mph61%30.27 "HgN/A
3:20 PM39 °FPartly sunny.13 mph61%30.27 "HgN/A
2:20 PM39 °FPartly sunny.10 mph65%30.24 "HgN/A
1:20 PM37 °FPartly sunny.13 mph70%30.24 "HgN/A
12:20 PM37 °FPartly sunny.13 mph75%30.24 "HgN/A
11:20 AM36 °FBroken clouds.12 mph81%30.24 "HgN/A
Weather by CustomWeather, © 2015

See weather overviewHow to use our weather pages